Flag for Chile Weather past 2 weeks in Osorno, Chile

Now
52 °F

Passing clouds.


Feels Like: 48 °F
Forecast: 34 / 58 °F
Wind: 12 mph from South

Location: Puerto Montt Airport

Current Time: Sep 2, 2015 at 3:05:52 PM

Latest Report: Sep 2, 2015 at 2:00 PM


Visibility: N/A

Pressure: 30.45 "Hg

Humidity: 67%

Dew point: 41 °F

Location of OsornoLocation

Historic Weather in Osorno — Graph

°F

Osorno temperature yesterday

Maximum temperature yesterday: 57 °F (at 3:00 PM)
Minimum temperature yesterday: 37 °F (at 7:00 AM)
Average temperature yesterday: 47 °F

Past Weeks' High & Low Weather Summary

 TemperatureHumidityPressure
High57 °F (Aug 19, 4:00 PM)100% (Aug 19, 6:00 AM)30.48 "Hg (Aug 19, 6:00 AM)
Low34 °F (Aug 31, 5:00 AM)51% (Aug 19, 4:00 PM)29.53 "Hg (Aug 25, 12:00 PM)
Average48 °F87%29.94 "Hg
* Reported Aug 18 2:00 PM — Sep 2 2:00 PM, Osorno, Weather by CustomWeather, © 2015

Note: Actual official high and low records may vary slightly from our data, if they occured in-between our weather recording intervals... More about our weather records

Advertising

Osorno weather history for previous 24 hours

 ConditionsComfort  
Time TempWeatherWind HumidityBarometerVisibility
2:00 PM
Wed, Sep 2
52 °FPassing clouds.12 mph67%30.45 "HgN/A
1:00 PM50 °FScattered clouds.10 mph67%30.45 "HgN/A
12:00 PM50 °FScattered clouds.9 mph71%30.45 "HgN/A
11:00 AM45 °FPartly sunny.5 mph87%30.45 "HgN/A
10:00 AM41 °FPartly sunny.7 mph93%30.48 "HgN/A
9:00 AM43 °FPartly sunny.5 mph87%30.45 "HgN/A
8:00 AM43 °FPartly sunny.5 mph87%30.42 "HgN/A
7:00 AM39 °FPassing clouds.5 mph93%30.42 "HgN/A
6:00 AM39 °FPassing clouds.6 mph93%30.39 "HgN/A
5:00 AM39 °FPassing clouds.5 mph93%30.39 "HgN/A
4:00 AM37 °FPassing clouds.5 mph93%30.39 "HgN/A
3:00 AM39 °FClear.6 mph93%30.39 "Hg10 mi
2:00 AM37 °FClear.6 mph93%30.39 "Hg10 mi
1:00 AM39 °FClear.2 mph93%30.39 "Hg10 mi
12:00 AM37 °FClear.2 mph93%30.39 "Hg10 mi
11:00 PM
Tue, Sep 1
39 °FClear.No wind93%30.39 "Hg10 mi
10:00 PM45 °FClear.5 mph81%30.36 "Hg10 mi
9:00 PM45 °FClear.3 mph87%30.33 "Hg10 mi
8:00 PM48 °FClear.8 mph71%30.33 "Hg10 mi
6:00 PM54 °FSunny.13 mph67%30.30 "Hg10 mi
5:00 PM55 °FSunny.12 mph63%30.27 "Hg10 mi
4:00 PM57 °FPassing clouds.10 mph51%30.27 "HgN/A
3:00 PM57 °FPassing clouds.9 mph59%30.27 "HgN/A
Weather by CustomWeather, © 2015

See weather overviewHow to use our weather pages